When you browse on this site, cookies collect data to enhance your experience and personalize the content and advertising you see.
Visit our Privacy Policy to learn more. By continuing to use the site, you agree to this use of cookies and data.
  • In Czech Republic
  • List of Countries
  • For 7 days
  • Water Temperature
  • Weather Map
  • Weather Widgets
  • user-avatar
    Login

    Hourly Weather Eldoret

    Today, 18 August, Sunday

    Time Temperature Precipitation Wind Pressure Humidity
    00:00 +14°C° 0.5 mm 1 mps 596 mmHg 94%
    01:00 +14°C° 0.5 mm 1 mps 595 mmHg 94%
    02:00 +14°C° 0 mm 1 mps 595 mmHg 94%
    03:00 +14°C° 0.3 mm 1 mps 595 mmHg 94%
    04:00 +14°C° 0.3 mm 1 mps 595 mmHg 93%
    05:00 +13°C° 0.3 mm 1 mps 595 mmHg 93%
    06:00 +15°C° 0.1 mm 1 mps 596 mmHg 90%
    07:00 +15°C° 0.1 mm 0 mps 597 mmHg 88%
    08:00 +16°C° 0 mm 0 mps 598 mmHg 84%
    09:00 +19°C° 0.9 mm 1 mps 598 mmHg 81%
    10:00 +20°C° 0.9 mm 1 mps 598 mmHg 77%
    11:00 +21°C° 0.9 mm 1 mps 599 mmHg 73%
    12:00 +21°C° 1.2 mm 1 mps 598 mmHg 75%
    13:00 +21°C° 1.2 mm 1 mps 597 mmHg 77%
    14:00 +21°C° 0 mm 1 mps 597 mmHg 77%
    15:00 +21°C° 1.3 mm 1 mps 597 mmHg 81%
    16:00 +20°C° 1.3 mm 1 mps 597 mmHg 84%
    17:00 +17°C° 1.3 mm 0 mps 596 mmHg 88%
    18:00 +18°C° 0.3 mm 1 mps 596 mmHg 89%
    19:00 +16°C° 0.3 mm 1 mps 596 mmHg 89%
    20:00 +15°C° 0.3 mm 1 mps 596 mmHg 90%
    21:00 +15°C° 0.1 mm 1 mps 596 mmHg 90%
    22:00 +15°C° 0.1 mm 1 mps 596 mmHg 90%
    23:00 +15°C° 0.1 mm 1 mps 596 mmHg 90%

    Tomorrow, 19 August, Monday

    Time Temperature Precipitation Wind Pressure Humidity
    00:00 +14°C° 0.1 mm 1 mps 596 mmHg 91%
    01:00 +13°C° 0.1 mm 0 mps 595 mmHg 92%
    02:00 +13°C° 0.1 mm 0 mps 595 mmHg 92%
    03:00 +14°C° 0.1 mm 1 mps 595 mmHg 92%
    04:00 +14°C° 0.1 mm 1 mps 595 mmHg 91%
    05:00 +14°C° 0.1 mm 1 mps 596 mmHg 91%
    06:00 +15°C° 0.1 mm 1 mps 596 mmHg 90%
    07:00 +16°C° 0.1 mm 1 mps 597 mmHg 88%
    08:00 +18°C° 0.1 mm 1 mps 598 mmHg 86%
    09:00 +19°C° 0.5 mm 1 mps 598 mmHg 79%
    10:00 +21°C° 0.5 mm 1 mps 599 mmHg 72%
    11:00 +22°C° 0.5 mm 1 mps 599 mmHg 65%
    12:00 +22°C° 1.4 mm 1 mps 598 mmHg 70%
    13:00 +21°C° 1.4 mm 1 mps 597 mmHg 75%
    14:00 +21°C° 1.4 mm 1 mps 597 mmHg 80%
    15:00 +20°C° 1.2 mm 1 mps 596 mmHg 84%
    16:00 +19°C° 1.2 mm 1 mps 596 mmHg 87%
    17:00 +17°C° 1.2 mm 0 mps 596 mmHg 90%
    18:00 +18°C° 1.1 mm 1 mps 596 mmHg 92%
    19:00 +16°C° 1.1 mm 1 mps 596 mmHg 93%
    20:00 +15°C° 1.1 mm 2 mps 596 mmHg 94%
    21:00 +15°C° 0.1 mm 1 mps 596 mmHg 93%
    22:00 +15°C° 0.1 mm 1 mps 596 mmHg 93%
    23:00 +15°C° 0.1 mm 1 mps 596 mmHg 92%

    Day after tomorrow, 20 August, Tuesday

    Time Temperature Precipitation Wind Pressure Humidity
    00:00 +15°C° 0 mm 1 mps 596 mmHg 91%
    01:00 +15°C° 0 mm 1 mps 596 mmHg 91%
    02:00 +15°C° 0 mm 1 mps 595 mmHg 91%
    03:00 +14°C° 0.1 mm 1 mps 595 mmHg 91%
    04:00 +14°C° 0.1 mm 1 mps 595 mmHg 91%
    05:00 +14°C° 0.1 mm 1 mps 596 mmHg 91%
    06:00 +16°C° 0.1 mm 1 mps 597 mmHg 87%
    07:00 +18°C° 0.1 mm 1 mps 598 mmHg 84%
    08:00 +20°C° 0.1 mm 1 mps 599 mmHg 80%
    09:00 +21°C° 0.4 mm 1 mps 599 mmHg 74%
    10:00 +22°C° 0.4 mm 1 mps 600 mmHg 67%
    11:00 +24°C° 0.4 mm 1 mps 600 mmHg 61%
    12:00 +23°C° 0.9 mm 1 mps 599 mmHg 66%
    13:00 +22°C° 0.9 mm 1 mps 598 mmHg 71%
    14:00 +22°C° 0.9 mm 1 mps 598 mmHg 76%
    15:00 +21°C° 1.2 mm 1 mps 597 mmHg 81%
    16:00 +20°C° 1.2 mm 1 mps 597 mmHg 86%
    17:00 +18°C° 1.2 mm 1 mps 596 mmHg 91%
    18:00 +16°C° 0.6 mm 1 mps 596 mmHg 91%
    19:00 +15°C° 0.6 mm 1 mps 597 mmHg 92%
    20:00 +14°C° 0.6 mm 1 mps 597 mmHg 92%
    21:00 +14°C° 0.2 mm 1 mps 597 mmHg 93%
    22:00 +14°C° 0.2 mm 1 mps 597 mmHg 93%
    23:00 +14°C° 0.2 mm 1 mps 597 mmHg 93%

    21 August, Wednesday

    Time Temperature Precipitation Wind Pressure Humidity
    00:00 +14°C° 0 mm 1 mps 596 mmHg 93%
    01:00 +13°C° 0 mm 1 mps 596 mmHg 93%
    02:00 +12°C° 0 mm 0 mps 595 mmHg 94%
    03:00 +13°C° 0 mm 1 mps 595 mmHg 93%
    04:00 +13°C° 0 mm 1 mps 595 mmHg 93%
    05:00 +12°C° 0 mm 1 mps 595 mmHg 92%
    06:00 +15°C° 0 mm 1 mps 597 mmHg 86%
    07:00 +18°C° 0 mm 1 mps 598 mmHg 81%
    08:00 +20°C° 0 mm 1 mps 599 mmHg 75%
    09:00 +21°C° 0.1 mm 1 mps 600 mmHg 67%
    10:00 +23°C° 0.1 mm 1 mps 600 mmHg 60%
    11:00 +24°C° 0.1 mm 1 mps 600 mmHg 52%
    12:00 +23°C° 0.8 mm 1 mps 599 mmHg 60%
    13:00 +22°C° 0.8 mm 1 mps 598 mmHg 68%
    14:00 +21°C° 0.8 mm 1 mps 597 mmHg 76%
    15:00 +20°C° 0.9 mm 1 mps 597 mmHg 80%
    16:00 +20°C° 0.9 mm 1 mps 597 mmHg 84%
    17:00 +19°C° 0.9 mm 1 mps 597 mmHg 89%
    18:00 +18°C° 0.5 mm 1 mps 597 mmHg 90%
    19:00 +15°C° 0.5 mm 1 mps 597 mmHg 91%
    20:00 +14°C° 0.5 mm 1 mps 597 mmHg 93%
    21:00 +14°C° 0.3 mm 1 mps 597 mmHg 92%
    22:00 +14°C° 0.3 mm 1 mps 597 mmHg 92%
    23:00 +15°C° 0.3 mm 1 mps 597 mmHg 92%

    22 August, Thursday

    Time Temperature Precipitation Wind Pressure Humidity
    00:00 +14°C° 0.1 mm 1 mps 596 mmHg 92%
    01:00 +14°C° 0.1 mm 1 mps 596 mmHg 91%
    02:00 +14°C° 0.1 mm 1 mps 595 mmHg 91%
    03:00 +14°C° 0.1 mm 1 mps 596 mmHg 90%
    04:00 +14°C° 0.1 mm 1 mps 596 mmHg 90%
    05:00 +14°C° 0.1 mm 1 mps 596 mmHg 90%
    06:00 +15°C° 0 mm 1 mps 597 mmHg 86%
    07:00 +16°C° 0 mm 1 mps 598 mmHg 83%
    08:00 +19°C° 0 mm 1 mps 599 mmHg 79%
    09:00 +21°C° 0.2 mm 1 mps 599 mmHg 70%
    10:00 +22°C° 0.2 mm 1 mps 600 mmHg 60%
    11:00 +24°C° 0.2 mm 1 mps 600 mmHg 51%
    12:00 +23°C° 0.9 mm 1 mps 599 mmHg 58%
    13:00 +22°C° 0.9 mm 1 mps 598 mmHg 66%
    14:00 +22°C° 0.9 mm 1 mps 597 mmHg 74%
    15:00 +21°C° 1 mm 1 mps 597 mmHg 78%
    16:00 +20°C° 1 mm 1 mps 597 mmHg 82%
    17:00 +19°C° 1 mm 1 mps 596 mmHg 87%
    18:00 +18°C° 0.4 mm 1 mps 596 mmHg 88%
    19:00 +16°C° 0.4 mm 1 mps 596 mmHg 90%
    20:00 +15°C° 0.4 mm 1 mps 596 mmHg 91%
    21:00 +14°C° 0.1 mm 1 mps 596 mmHg 90%
    22:00 +14°C° 0.1 mm 1 mps 596 mmHg 89%
    23:00 +14°C° 0.1 mm 1 mps 596 mmHg 89%

    23 August, Friday

    Time Temperature Precipitation Wind Pressure Humidity
    00:00 +14°C° 0 mm 1 mps 596 mmHg 88%
    01:00 +13°C° 0 mm 1 mps 595 mmHg 88%
    02:00 +13°C° 0 mm 1 mps 595 mmHg 88%
    03:00 +13°C° 0 mm 1 mps 595 mmHg 88%
    04:00 +13°C° 0 mm 1 mps 595 mmHg 88%
    05:00 +12°C° 0 mm 0 mps 595 mmHg 88%
    06:00 +14°C° 0.1 mm 0 mps 597 mmHg 82%
    07:00 +16°C° 0.1 mm 0 mps 598 mmHg 77%
    08:00 +18°C° 0.1 mm 0 mps 599 mmHg 72%
    09:00 +21°C° 1.1 mm 1 mps 599 mmHg 72%
    10:00 +21°C° 1.1 mm 1 mps 599 mmHg 72%
    11:00 +22°C° 1.1 mm 1 mps 599 mmHg 72%
    12:00 +22°C° 1.6 mm 1 mps 599 mmHg 73%
    13:00 +22°C° 1.6 mm 1 mps 598 mmHg 74%
    14:00 +20°C° 1.6 mm 0 mps 597 mmHg 74%
    15:00 +19°C° 1.2 mm 0 mps 597 mmHg 78%
    16:00 +18°C° 1.2 mm 0 mps 597 mmHg 83%
    17:00 +18°C° 1.2 mm 0 mps 597 mmHg 87%
    18:00 +16°C° 0.4 mm 0 mps 597 mmHg 88%
    19:00 +16°C° 0.4 mm 1 mps 597 mmHg 89%
    20:00 +14°C° 0.4 mm 1 mps 596 mmHg 90%
    21:00 +14°C° 0.1 mm 1 mps 596 mmHg 90%
    22:00 +14°C° 0.1 mm 1 mps 596 mmHg 90%
    23:00 +14°C° 0.1 mm 1 mps 596 mmHg 90%
    Show more